Regional Weather Roundup
Issued by NWS Cleveland, OH

Home | Current Version | Previous Version | Graphics & Text | Print | Product List | Glossary On
Versions: 1 2 3 4 5 6 7 8 9 10 11 12 13 14 15 16 17 18 19 20 21 22 23 24 25 26 27 28 29 30 31 32 33 34 35 36 37 38 39 40 41 42 43 44 45 46 47 48 49 50
000
ASUS41 KCLE 242302
RWRCLE
OHIO REGIONAL WEATHER ROUNDUP
NATIONAL WEATHER SERVICE CLEVELAND, OH
700 PM EDT WED MAY 24 2017

NOTE: "FAIR" INDICATES FEW OR NO CLOUDS BELOW 12,000 FEET WITH NO
SIGNIFICANT WEATHER AND/OR OBSTRUCTIONS TO VISIBILITY.

OHZ001>008-015>018-024>027-034-035-043-044-250000-
   NORTHWEST OHIO

CITY           SKY/WX    TMP DP  RH WIND       PRES   REMARKS
DEFIANCE       LGT RAIN  59  57  93 NE10      29.46S FOG
FINDLAY        CLOUDY    65  59  81 E9        29.42F
TOLEDO EXPRESS CLOUDY    59  59 100 E16       29.47F
TOLEDO EXEC    CLOUDY    60  59  96 E14G22    29.49S FOG
LIMA           CLOUDY    66  59  78 E14       29.41F
$$

OHZ009>014-019>023-028>033-038-089-250000-
   NORTHEAST OHIO

CITY           SKY/WX    TMP DP  RH WIND       PRES   REMARKS
CLE-HOPKINS    CLOUDY    64  58  80 E12       29.51F
CLE-LAKEFRONT  PTSUNNY   63  57  81 E12       29.49F
CUY CO. ARPT   CLOUDY    64  59  82 SE14      29.53F
LORAIN-ELYRIA    N/A    N/A N/A N/A MISG      29.49F
ASHTABULA      CLOUDY    66  56  70 SE9       29.55F
AKRON-CANTON   LGT RAIN  63  57  81 E10       29.52R FOG
WOOSTER        RAIN      60  59  96 E20       29.47F FOG
MANSFIELD      CLOUDY    61  61 100 E8        29.46S
YOUNGSTOWN     CLOUDY    64  53  67 SE13G22   29.55F
$$

OHZ042-051>053-060>062-070>072-077>081-250000-
  SOUTHWEST OHIO

CITY           SKY/WX    TMP DP  RH WIND       PRES   REMARKS
CINC-COVINGTON LGT RAIN  60  58  92 N13       29.37R
CINC-LUNKEN    LGT RAIN  67  62  84 CALM      29.35S
HAMILTON       TSTM      60  58  92 VRB5      29.37R FOG
DAYTON         CLOUDY    66  58  75 E12       29.38F
WRIGHT-PAT AFB NOT AVBL
DAYTON GENERAL CLOUDY    65  59  81 E7        29.35F THUNDER
WILMINGTON     CLOUDY    67  60  78 E8G21     29.37F
$$

OHZ036-037-039>041-045>050-054>059-063>069-073>076-082>088-250000-
  CENTRAL AND SOUTHEAST OHIO

CITY           SKY/WX    TMP DP  RH WIND       PRES   REMARKS
COLUMBUS       PTSUNNY   67  62  84 E10       29.40F
OSU AIRPORT    CLOUDY    67  61  81 E8        29.40F
BOLTON FIELD   CLOUDY    66  61  82 E6        29.41F
RICKENBACK AFB CLOUDY    67  62  85 E8G17     29.39F
NEWARK         CLOUDY    67  61  81 E8        29.42F
MARION         PTSUNNY   65  59  81 E12       29.43F
LANCASTER      CLOUDY    69  62  78 SE13      29.40F
ZANESVILLE     LGT RAIN  66  62  87 E12G22    29.43F
NEW PHILLY     NOT AVBL
$$




USA.gov is the U.S. government's official web portal to all federal, state and local government web resources and services.